Погода в Фюссене

Германия     47°34′10″N   10°42′01″E
В апреле 2022 года жителям России запретили посещать сайт meteo.paraplan.net по решению Генеральной прокуратуры. Аудитория сайта уменьшилась в 10 раз. Владельцы сайта не видят смысла в поддержке погодного сервера в таких условиях. Сайт будет закрыт в октябре.
темп.,
°C
ветер,
м/с
пор.,
м/с
влажн.,
%
обл.,
%
осадки,
мм/ч
давл.,
гПа
погр.,
м
3 октября, пн
пн323:00+8сз23100100 5.4 1022208
02:00+7ссв12100100 17.9 1025239
05:00+7зюз00100100 0.6 102683
08:00+7сз1110099 0.7 102696
11:00+8с119894 0.1 1026232
14:00+8с1192100 0.1 1025389
17:00+9с118892 0.0 1025314
20:00+5в1195100 0.0 102612
4 октября, вт
вт423:00+4ююв229747 0.0 102630
02:00+4ю22965 0.0 102528
05:00+4ю228942 0.0 102421
08:00+4ю2279100 0.0 102430
11:00+13ссв0045100 0.0 1021258
14:00+15с2142100 0.0 1021565
17:00+13с116341 0.0 1021153
20:00+8ю22825 0.0 102317
5 октября, ср
ср523:00+7ю327134 0.0 102431
02:00+7ю3265100 0.0 102435
05:00+7ю3256100 0.0 102434
08:00+8ю334997 0.0 102344
11:00+17ю1133100 0.0 1021260
14:00+19с213498 0.0 1021705
17:00+16с1257100 0.0 1022180
20:00+10ю227380 0.0 102522
6 октября, чт
чт623:00+10ю2264100 0.0 102724
02:00+9ююз226053 0.0 102920
05:00+8ююз2266100 0.0 103017
08:00+8ю22765 0.0 103026
11:00+15ссв21565 0.0 1030858
14:00+16с225510 0.0 10291291
17:00+14ссв227688 0.0 1029584
20:00+9вюв119932 0.0 103012
7 октября, пт
пт723:00+9ююв229627 0.0 103037
02:00+8ю22975 0.0 102842
05:00+7ю22900 0.0 102731
08:00+7ю22850 0.0 102731
11:00+16ссз11540 0.0 1024518
14:00+17с22556 0.0 10231105
17:00+15с226947 0.0 1022726
20:00+11ююв019253 0.1 102310